LNENZ ENZV-ENBO

Flight info

Callsign LNENZ
Flight time N/A
Altitude 45000
Route ODINU DCT KEKOD DCT ODNOS
Aircraft C700/M-SBDGHM1RWXY/LB2

Departure

Time 2026-04-16 13:23
Airport Stavanger Airport, Sola (ENZV)

Arrival

Time N/A
Airport Bodø Airport (ENBO)
Time Latitude Longitude Altitude Speed Heading
2026-04-16 13:13 58.89199 5.63294 20 ft 0 kts 270°
2026-04-16 13:18 58.89198 5.63293 20 ft 0 kts 265°
2026-04-16 13:19 58.89195 5.63289 22 ft 1 kts 210°
2026-04-16 13:19 58.89183 5.63303 21 ft 7 kts 148°
2026-04-16 13:19 58.89110 5.63349 21 ft 13 kts 178°
2026-04-16 13:19 58.89013 5.63384 21 ft 14 kts 141°
2026-04-16 13:20 58.88920 5.63411 24 ft 17 kts 179°
2026-04-16 13:20 58.88782 5.63417 25 ft 21 kts 180°
2026-04-16 13:20 58.88634 5.63419 26 ft 22 kts 179°
2026-04-16 13:20 58.88471 5.63424 25 ft 24 kts 179°
2026-04-16 13:21 58.88298 5.63429 25 ft 26 kts 180°
2026-04-16 13:21 58.88115 5.63432 25 ft 27 kts 177°
2026-04-16 13:21 58.87968 5.63391 26 ft 20 kts 204°
2026-04-16 13:21 58.87845 5.63289 26 ft 16 kts 194°
2026-04-16 13:22 58.87775 5.63286 25 ft 5 kts 176°
2026-04-16 13:22 58.87750 5.63314 27 ft 0 kts 105°
2026-04-16 13:22 58.87735 5.63420 26 ft 39 kts 105°
2026-04-16 13:23 58.87593 5.64447 182 ft 102 kts 111°
2026-04-16 13:23 58.87425 5.65911 902 ft 127 kts 113°
2026-04-16 13:23 58.87156 5.67798 1610 ft 165 kts 113°
2026-04-16 13:23 58.86775 5.70164 2405 ft 201 kts 115°
2026-04-16 13:24 58.86308 5.72889 3496 ft 224 kts 116°
2026-04-16 13:24 58.85873 5.75874 4570 ft 243 kts 102°
2026-04-16 13:24 58.86299 5.79135 5602 ft 272 kts 64°
2026-04-16 13:24 58.87783 5.81619 6661 ft 290 kts 26°
2026-04-16 13:25 58.89735 5.82598 7674 ft 293 kts
2026-04-16 13:25 58.91783 5.83401 8729 ft 304 kts 14°
2026-04-16 13:25 58.93766 5.84835 9803 ft 312 kts 27°
2026-04-16 13:25 58.95667 5.86898 10816 ft 318 kts 32°
2026-04-16 13:26 58.97676 5.89186 11603 ft 355 kts 30°
2026-04-16 13:26 58.99893 5.91383 12283 ft 350 kts 26°
2026-04-16 13:26 59.02160 5.93493 12973 ft 375 kts 27°
2026-04-16 13:26 59.04512 5.95837 13687 ft 386 kts 28°
2026-04-16 13:27 59.06911 5.98303 14329 ft 394 kts 28°
2026-04-16 13:27 59.09371 6.00772 14963 ft 401 kts 27°
2026-04-16 13:27 59.11878 6.03250 15601 ft 408 kts 27°
2026-04-16 13:27 59.14418 6.05794 16266 ft 413 kts 28°
2026-04-16 13:28 59.16965 6.08376 17270 ft 412 kts 28°
2026-04-16 13:28 59.19541 6.10974 18478 ft 421 kts 27°
2026-04-16 13:28 59.22153 6.13601 19570 ft 423 kts 27°
2026-04-16 13:28 59.24769 6.16242 20688 ft 423 kts 27°
2026-04-16 13:29 59.27376 6.18888 21854 ft 421 kts 27°
2026-04-16 13:29 59.29971 6.21522 23026 ft 421 kts 27°
2026-04-16 13:29 59.32579 6.24170 23928 ft 424 kts 27°
2026-04-16 13:29 59.35206 6.26845 24761 ft 427 kts 27°
2026-04-16 13:30 59.37847 6.29540 25610 ft 429 kts 28°
2026-04-16 13:30 59.40503 6.32251 26489 ft 431 kts 28°